CW3817 Weather Reports


Display with metric or nautical units.
time (UTC)temp
F
wind
direction
speed
MPH
gust
MPH
rain 1hr
in
rain 24hr
in
rain mn
in
humidity
%
barometer
mb
20260504202203 49 260 4.0 9.0 0.00 0.05 0.01 76 999.8
20260504201203 48 290 5.0 10.0 0.00 0.06 0.01 79 999.8
20260504200204 48 239 0.0 6.0 0.00 0.06 0.01 79 999.8
20260504195203 48 256 2.0 6.0 0.01 0.07 0.01 78 999.8
20260504194203 48 243 1.0 7.0 0.01 0.07 0.01 78 999.8
20260504193203 49 229 0.0 10.0 0.01 0.08 0.01 79 999.8
20260504192203 49 270 3.0 7.0 0.01 0.09 0.01 78 999.8
20260504191223 49 263 6.0 12.0 0.01 0.09 0.01 74 999.7
20260504185203 51 241 1.0 10.0 0.00 0.10 0.00 70 999.7
20260504184224 52 255 1.0 13.0 0.00 0.10 0.00 62 999.6
20260504183203 52 257 3.0 10.0 0.00 0.11 0.00 57 999.6
20260504182203 52 260 2.0 16.0 0.00 0.12 0.00 57 999.6
20260504181205 53 250 6.0 16.0 0.00 0.12 0.00 53 999.3
20260504180205 54 230 5.0 13.0 0.00 0.13 0.00 50 999.3
20260504175205 55 251 5.0 14.0 0.00 0.13 0.00 45 999.1
20260504174204 56 244 4.0 14.0 0.00 0.14 0.00 40 999.0
20260504173226 56 257 4.0 10.0 0.00 0.14 0.00 37 998.9
20260504172205 56 275 7.0 16.0 0.00 0.14 0.00 36 998.9
20260504171204 57 268 11.0 19.0 0.00 0.14 0.00 34 998.6
20260504170205 58 241 6.0 14.0 0.00 0.15 0.00 31 998.6
20260504160204 58 300 9.0 17.0 0.00 0.18 0.00 31 998.6
20260504150224 55 252 6.0 15.0 0.00 0.23 0.00 39 999.6
20260504141203 52 275 3.0 15.0 0.00 0.27 0.00 47 1000.2
20260504110226 35 236 0.0 8.0 0.00 0.42 0.00 83 1000.5
20260504100225 31 252 0.0 1.0 0.00 0.46 0.00 88 1000.5
20260504081203 34 315 3.0 12.0 0.00 0.51 0.00 85 999.4
20260504070204 34 281 4.0 7.0 0.00 0.51 0.00 86 998.5
20260504060203 36 342 2.0 7.0 0.00 0.51 0.00 83 998.3
20260504050203 38 316 4.0 12.0 0.00 0.51 0.00 84 998.3
20260504045203 38 312 4.0 12.0 0.00 0.51 0.00 83 998.3
20260504044203 38 276 3.0 13.0 0.00 0.51 0.00 84 998.2
20260504043224 39 312 4.0 14.0 0.00 0.51 0.00 85 998.2
20260504042203 39 316 4.0 11.0 0.00 0.51 0.00 86 998.2
20260504041203 39 315 4.0 13.0 0.00 0.51 0.00 88 998.2
20260504035204 40 319 4.0 7.0 0.00 0.52 0.51 93 998.0
20260504034204 40 328 3.0 7.0 0.00 0.52 0.51 94 997.8
20260504033203 40 354 1.0 11.0 0.00 0.52 0.51 95 997.8
20260504032204 40 350 4.0 6.0 0.00 0.52 0.51 95 998.0
20260504031203 40 9 6.0 16.0 0.00 0.53 0.51 95 998.0
20260504030204 40 334 2.0 12.0 0.00 0.53 0.51 95 998.0
20260504025203 40 320 3.0 10.0 0.00 0.53 0.51 94 998.0
20260504024204 40 330 4.0 9.0 0.00 0.53 0.51 94 997.9
20260504023203 40 320 1.0 6.0 0.00 0.53 0.51 93 997.9
20260504022203 40 355 2.0 6.0 0.00 0.53 0.51 93 997.7
20260504021225 40 347 5.0 14.0 0.00 0.53 0.51 93 997.7
20260504020203 40 337 6.0 12.0 0.00 0.53 0.51 93 997.7
20260504015203 40 346 6.0 17.0 0.00 0.53 0.51 94 997.7
20260504014203 40 346 7.0 14.0 0.00 0.53 0.51 95 998.0
20260504013203 40 329 7.0 12.0 0.00 0.53 0.51 95 998.0
20260504012202 40 357 7.0 17.0 0.00 0.53 0.51 96 997.9
20260504011203 40 354 6.0 12.0 0.00 0.53 0.51 95 997.8
20260504005205 40 2 8.0 11.0 0.00 0.53 0.51 95 997.7
20260504004204 40 350 6.0 12.0 0.00 0.53 0.51 95 997.7
20260504003204 40 12 3.0 10.0 0.00 0.53 0.51 95 997.7
20260504002204 40 352 4.0 17.0 0.00 0.53 0.51 95 997.7
20260504001225 40 5 2.0 12.0 0.00 0.53 0.51 95 997.7
20260504000204 40 359 3.0 12.0 0.00 0.53 0.51 95 997.7
20260503235225 40 324 4.0 13.0 0.01 0.53 0.51 95 997.5
20260503234225 40 348 4.0 14.0 0.00 0.53 0.50 95 997.5
20260503233204 40 359 4.0 15.0 0.00 0.53 0.50 95 997.5
20260503232204 41 337 6.0 14.0 0.00 0.53 0.50 95 997.5
20260503231225 41 339 3.0 10.0 0.00 0.53 0.50 95 997.6
20260503230203 41 359 3.0 9.0 0.00 0.53 0.50 95 997.6
20260503225225 41 4 6.0 13.0 0.01 0.53 0.50 95 997.7
20260503224203 41 342 6.0 16.0 0.01 0.53 0.50 94 997.7
20260503223204 41 356 8.0 15.0 0.00 0.52 0.49 94 997.6
20260503222204 41 1 6.0 11.0 0.00 0.52 0.49 94 997.6
20260503221224 41 352 8.0 13.0 0.00 0.53 0.49 94 997.6
20260503220203 41 349 8.0 13.0 0.00 0.53 0.49 95 997.6
20260503215203 41 359 7.0 12.0 0.01 0.53 0.49 95 997.7
20260503214224 41 339 5.0 13.0 0.01 0.53 0.49 95 997.9
20260503213203 41 14 6.0 11.0 0.01 0.54 0.49 95 998.2
20260503212203 41 359 7.0 12.0 0.01 0.54 0.49 95 998.2
20260503211204 41 5 6.0 13.0 0.01 0.54 0.49 95 998.3
20260503210205 41 355 6.0 13.0 0.01 0.54 0.49 95 998.3
20260503205205 41 343 5.0 9.0 0.03 0.53 0.48 96 998.4
20260503204226 41 331 3.0 13.0 0.03 0.53 0.48 96 998.5
20260503203205 41 0 5.0 11.0 0.02 0.52 0.47 96 998.7